Flag for U.S.A. Weather past 2 weeks in Casper, Wyoming, U.S.A.

Now
89 °F

Sunny.


Feels Like: 85 °F
Forecast: 53 / 90 °F
Wind: 9 mph from Southwest

Location: Natrona County International Airport

Current Time: Aug 29, 2015 at 1:33:51 PM

Latest Report: Aug 29, 2015 at 12:53 PM


Visibility: 10 mi

Pressure: 29.95 "Hg (25.12 "Hg at 1569m altitude)

Humidity: 12%

Dew point: 30 °F

Location of CasperLocation

Historic Weather in Casper — Graph

°F

Casper temperature yesterday

Maximum temperature yesterday: 83 °F (at 3:53 PM)
Minimum temperature yesterday: 54 °F (at 5:53 AM)
Average temperature yesterday: 68 °F

Past Weeks' High & Low Weather Summary

 TemperatureHumidityPressure
High95 °F (Aug 14, 2:53 PM)93% (Aug 19, 5:53 AM)30.27 "Hg (Aug 19, 5:53 AM)
Low31 °F (Aug 23, 5:53 AM)7% (Aug 21, 3:53 PM)29.53 "Hg (Aug 21, 6:53 PM)
Average66 °F41%29.95 "Hg
* Reported Aug 14 11:53 AM — Aug 29 11:53 AM, Casper, Weather by CustomWeather, © 2015

Note: Actual official high and low records may vary slightly from our data, if they occured in-between our weather recording intervals... More about our weather records

Advertising

Casper weather history for previous 24 hours

 ConditionsComfort  
Time TempWeatherWind HumidityBarometerVisibility
11:53 AM
Sat, Aug 29
87 °FSunny.16 mph17%29.96 "Hg10 mi
10:53 AM85 °FSunny.21 mph18%29.99 "Hg10 mi
9:53 AM81 °FSunny.20 mph21%30.00 "Hg10 mi
8:53 AM74 °FSunny.7 mph27%30.00 "Hg8 mi
7:53 AM64 °FSunny.9 mph40%30.01 "Hg7 mi
6:53 AM58 °FClear.12 mph47%30.01 "Hg7 mi
5:53 AM59 °FClear.9 mph46%29.98 "Hg8 mi
4:53 AM57 °FClear.7 mph47%29.99 "Hg8 mi
3:53 AM56 °FClear.6 mph49%29.99 "Hg8 mi
2:53 AM55 °FClear.7 mph51%30.01 "Hg8 mi
12:53 AM51 °FClear.5 mph61%30.03 "Hg7 mi
11:53 PM
Fri, Aug 28
61 °FClear.6 mph39%30.02 "Hg7 mi
10:53 PM57 °FClear.No wind51%30.04 "Hg7 mi
9:53 PM58 °FClear.5 mph44%30.05 "Hg7 mi
8:53 PM65 °FClear.3 mph33%30.03 "Hg7 mi
7:53 PM73 °FSunny.7 mph25%29.99 "Hg6 mi
6:53 PM78 °FSunny.6 mph23%29.98 "Hg6 mi
5:53 PM83 °FSunny.10 mph17%29.98 "Hg6 mi
4:53 PM83 °FSunny.9 mph17%29.98 "Hg6 mi
3:53 PM83 °FSunny.8 mph19%29.98 "Hg8 mi
2:53 PM81 °FSunny.5 mph21%30.00 "Hg8 mi
1:53 PM81 °FSunny.7 mph23%30.01 "Hg8 mi
Weather by CustomWeather, © 2015

See weather overviewHow to use our weather pages